COSMOS 2251 DEB, 36551

Orbit data source: Space-Track

COSMOS 2251 DEB, 36551 is space debris in LEO originally from a launch on Wed, 16 Jun 1993 UTC launched from the Plesetsk Missile And Space Complex (PKMTR). The debris from Iridium 33, an American commercial communications satellite, has been tracked extensively since its accidental collision with the defunct Russian satellite Cosmos 2251 in 2009. This event, occurring at high speed in low Earth orbit (LEO), generated thousands of pieces of space debris, significantly increasing the risk of further collisions. The Iridium 33 debris cloud has impacted space traffic management and orbital debris mitigation strategies, making it a subject of ongoing study in space situational awareness.

Loading next visibility...
Identifier
36551, 1993-036BDM
Orbit
LEO
Country
Flag of CISCIS
Related business
Manufacturer
Unknown
Mission
Spacecraft
Bus & Motor
Unknown
Mass
Unknown
Launch date (UTC)
1993-06-16 (33 years ago)
Launch vehicle
Unknown
Launch site
Plesetsk Missile And Space Complex (PKMTR)
Object type
Payload
Rocket body
Debris
Shape & HBR
Unknown shape, 0.1 m
Radar Cross Section
Small (<0.1 m²)

Expand to show TLE details & history
Last TLE update: 4 days ago

TLE from 4 days ago
0 COSMOS 2251 DEB
1 36551U 93036BDM 26117.22134870  .00035791  00000-0  21809-2 0  9992
2 36551  73.8817  94.2203 0038330   7.0527 353.1195 15.09589428689713
Epoch: 2026-04-27T05:18Z
TLE epoch observation values (Epoch: 2026-04-27T05:18:44.527Z)
Latitude
0.00002°
Longitude
159.32065°
Altitude
513.824 km
Speed
7.621 km/s
True Right ascension
06h 16m 52s
True Declination
0° 00' 00"
Sunlit
Object was in daylight at epoch
Visualization orbit readout
Latitude
Unknown
Longitude
Unknown
Altitude
Unknown
Speed
Unknown
Apparent Right ascension
Unknown
Apparent Declination
Unknown
Sunlit
N/A
Visualization observer readout
Local Sidereal Time
17:14:29
Azimuth
Unknown
Elevation
Unknown
Doppler factor
Unknown
Orbital elements
Apogee altitude
561.509 km
Perigee altitude
508.512 km
Semi-major axis
6,913.148 km
Eccentricity
0.00383
Inclination
73.8817°
RAAN
94.2203°
Arg. of periapsis
7.0527°
True anomaly
353.06663°
Mean anomaly
353.1195°
Eccentric anomaly
353.09309°
Mean motion
3.77598 °/min
Orbital period
95.34 mins
BSTAR
0.0021809
Loading maneuver chart data...
Computing Atmospheric mass density...
Loading historical data...
Loading historical data...
Loading historical data...
Loading historical data...
Loading historical data...
Loading historical data...
Loading historical data...

Documentation

Showing up to 5 results
|